Time,TemperatureF,DewpointF,PressureIn,WindDirection,WindDirectionDegrees,WindSpeedMPH,WindSpeedGustMPH,Humidity,HourlyPrecipIn,Conditions,Clouds,dailyrainin,SoftwareType,DateUTC
2013-03-18 00:00:00,39.0,36.1,30.16,SW,223,1.0,3.0,89,0.00,,,0.00,meteohub,2013-03-18 07:00:00,
2013-03-18 00:05:00,38.8,36.0,30.16,SW,226,0.0,2.0,89,0.00,,,0.00,meteohub,2013-03-18 07:05:00,
2013-03-18 00:10:00,38.8,36.1,30.17,East,98,0.0,2.0,90,0.00,,,0.00,meteohub,2013-03-18 07:10:00,
2013-03-18 00:15:00,38.8,36.0,30.16,SW,221,1.0,3.0,89,0.00,,,0.00,meteohub,2013-03-18 07:15:00,
2013-03-18 00:20:00,38.8,36.1,30.16,South,186,3.0,3.0,90,0.00,,,0.00,meteohub,2013-03-18 07:20:00,
2013-03-18 00:26:00,39.0,36.3,30.16,SSW,203,3.0,3.0,90,0.00,,,0.00,meteohub,2013-03-18 07:26:00,
2013-03-18 00:31:00,39.0,36.3,30.16,SW,236,1.0,4.0,90,0.00,,,0.00,meteohub,2013-03-18 07:31:00,
2013-03-18 00:36:00,39.0,36.1,30.16,South,186,2.0,4.0,89,0.00,,,0.00,meteohub,2013-03-18 07:36:00,
2013-03-18 00:41:00,39.0,36.3,30.16,South,183,1.0,4.0,90,0.00,,,0.00,meteohub,2013-03-18 07:41:00,
2013-03-18 00:47:00,38.8,36.1,30.16,SE,144,1.0,4.0,90,0.00,,,0.00,meteohub,2013-03-18 07:47:00,
2013-03-18 00:52:00,38.8,36.1,30.16,SSW,212,1.0,4.0,90,0.00,,,0.00,meteohub,2013-03-18 07:52:00,
2013-03-18 00:57:00,38.7,35.8,30.15,SSW,200,1.0,3.0,89,0.00,,,0.00,meteohub,2013-03-18 07:57:00,
2013-03-18 01:02:00,38.7,36.0,30.15,SE,126,3.0,4.0,90,0.00,,,0.00,meteohub,2013-03-18 08:02:00,
2013-03-18 01:08:00,38.7,36.0,30.15,SSE,150,3.0,5.0,90,0.00,,,0.00,meteohub,2013-03-18 08:08:00,
2013-03-18 01:13:00,38.5,35.8,30.15,SSW,200,2.0,7.0,90,0.00,,,0.00,meteohub,2013-03-18 08:13:00,
2013-03-18 01:18:00,38.5,35.8,30.14,SSE,156,1.0,7.0,90,0.00,,,0.00,meteohub,2013-03-18 08:18:00,
2013-03-18 01:23:00,38.7,36.0,30.14,SE,124,2.0,7.0,90,0.00,,,0.00,meteohub,2013-03-18 08:23:00,
2013-03-18 01:28:00,38.7,36.0,30.14,South,176,2.0,8.0,90,0.00,,,0.00,meteohub,2013-03-18 08:28:00,
2013-03-18 01:33:00,38.7,36.0,30.14,SSE,163,0.0,8.0,90,0.00,,,0.00,meteohub,2013-03-18 08:33:00,
2013-03-18 01:39:00,38.8,36.1,30.14,SSW,211,3.0,8.0,90,0.00,,,0.00,meteohub,2013-03-18 08:39:00,
2013-03-18 01:44:00,38.8,36.1,30.14,South,176,1.0,6.0,90,0.00,,,0.00,meteohub,2013-03-18 08:44:00,
2013-03-18 01:49:00,38.8,36.0,30.14,SE,125,4.0,9.0,89,0.00,,,0.00,meteohub,2013-03-18 08:49:00,
2013-03-18 01:54:00,39.0,36.3,30.13,SW,221,1.0,9.0,90,0.00,,,0.00,meteohub,2013-03-18 08:54:00,
2013-03-18 01:59:00,39.0,36.1,30.13,SSW,210,1.0,11.0,89,0.00,,,0.00,meteohub,2013-03-18 08:59:00,
2013-03-18 02:05:00,39.2,36.3,30.13,SE,144,6.0,11.0,89,0.00,,,0.00,meteohub,2013-03-18 09:05:00,
2013-03-18 02:10:00,39.2,36.3,30.13,SSE,148,8.0,11.0,89,0.00,,,0.00,meteohub,2013-03-18 09:10:00,
2013-03-18 02:15:00,39.2,36.5,30.12,SSE,159,4.0,12.0,90,0.00,,,0.00,meteohub,2013-03-18 09:15:00,
2013-03-18 02:20:00,39.4,36.5,30.12,SSE,166,2.0,12.0,89,0.00,,,0.00,meteohub,2013-03-18 09:20:00,
2013-03-18 02:25:00,39.4,36.7,30.13,SSE,163,2.0,12.0,90,0.00,,,0.00,meteohub,2013-03-18 09:25:00,
2013-03-18 02:31:00,39.6,36.9,30.13,South,180,2.0,9.0,90,0.00,,,0.00,meteohub,2013-03-18 09:31:00,
2013-03-18 02:36:00,39.6,36.9,30.12,SSE,168,2.0,9.0,90,0.00,,,0.00,meteohub,2013-03-18 09:36:00,
2013-03-18 02:41:00,39.7,37.0,30.12,SSE,155,1.0,7.0,90,0.00,,,0.00,meteohub,2013-03-18 09:41:00,
2013-03-18 02:46:00,39.7,37.4,30.11,South,174,4.0,7.0,91,0.00,,,0.00,meteohub,2013-03-18 09:46:00,
2013-03-18 02:52:00,39.7,36.7,30.11,SSE,152,3.0,7.0,89,0.00,,,0.00,meteohub,2013-03-18 09:52:00,
2013-03-18 02:57:00,39.7,37.0,30.11,South,184,3.0,8.0,90,0.00,,,0.00,meteohub,2013-03-18 09:57:00,
2013-03-18 03:02:00,39.7,36.7,30.11,SSW,208,8.0,9.0,89,0.00,,,0.00,meteohub,2013-03-18 10:02:00,
2013-03-18 03:07:00,39.7,36.7,30.11,SSW,210,5.0,9.0,89,0.00,,,0.00,meteohub,2013-03-18 10:07:00,
2013-03-18 03:12:00,39.7,36.5,30.11,South,174,5.0,9.0,88,0.00,,,0.00,meteohub,2013-03-18 10:12:00,
2013-03-18 03:17:00,39.9,36.7,30.10,SSE,157,4.0,9.0,88,0.00,,,0.00,meteohub,2013-03-18 10:17:00,
2013-03-18 03:22:00,39.9,36.7,30.10,SW,226,4.0,9.0,88,0.00,,,0.00,meteohub,2013-03-18 10:22:00,
2013-03-18 03:28:00,39.9,36.7,30.10,SE,132,4.0,8.0,88,0.00,,,0.00,meteohub,2013-03-18 10:28:00,
2013-03-18 03:33:00,40.1,36.9,30.10,South,177,3.0,7.0,88,0.00,,,0.00,meteohub,2013-03-18 10:33:00,
2013-03-18 03:38:00,40.1,36.5,30.09,SSW,201,3.0,7.0,87,0.00,,,0.00,meteohub,2013-03-18 10:38:00,
2013-03-18 03:43:00,40.1,36.9,30.09,SSW,212,2.0,7.0,88,0.00,,,0.00,meteohub,2013-03-18 10:43:00,
2013-03-18 03:49:00,40.3,37.0,30.09,SSE,158,3.0,7.0,88,0.00,,,0.00,meteohub,2013-03-18 10:49:00,
2013-03-18 03:54:00,40.3,37.0,30.09,East,89,6.0,8.0,88,0.00,,,0.00,meteohub,2013-03-18 10:54:00,
2013-03-18 03:59:00,40.3,37.0,30.09,South,174,3.0,8.0,88,0.00,,,0.00,meteohub,2013-03-18 10:59:00,
2013-03-18 04:04:00,40.3,37.0,30.09,SSE,166,3.0,8.0,88,0.00,,,0.00,meteohub,2013-03-18 11:04:00,
2013-03-18 04:09:00,40.3,37.2,30.09,WSW,245,4.0,8.0,89,0.00,,,0.00,meteohub,2013-03-18 11:09:00,
2013-03-18 04:14:00,40.3,36.7,30.09,SSW,210,4.0,7.0,87,0.00,,,0.00,meteohub,2013-03-18 11:14:00,
2013-03-18 04:19:00,40.3,36.7,30.09,SSW,201,4.0,7.0,87,0.00,,,0.00,meteohub,2013-03-18 11:19:00,
2013-03-18 04:24:00,40.3,37.0,30.09,South,186,2.0,7.0,88,0.00,,,0.00,meteohub,2013-03-18 11:24:00,
2013-03-18 04:30:00,40.3,36.7,30.09,SW,214,4.0,7.0,87,0.00,,,0.00,meteohub,2013-03-18 11:30:00,
2013-03-18 04:35:00,40.5,36.7,30.08,SW,217,2.0,9.0,86,0.00,,,0.00,meteohub,2013-03-18 11:35:00,
2013-03-18 04:40:00,40.6,36.5,30.08,South,187,5.0,9.0,85,0.00,,,0.00,meteohub,2013-03-18 11:40:00,
2013-03-18 04:45:00,40.8,36.3,30.09,SW,214,2.0,11.0,84,0.00,,,0.00,meteohub,2013-03-18 11:45:00,
2013-03-18 04:50:00,40.6,36.1,30.09,WSW,257,4.0,11.0,84,0.00,,,0.00,meteohub,2013-03-18 11:50:00,
2013-03-18 04:55:00,40.6,36.5,30.08,ESE,103,1.0,11.0,85,0.00,,,0.00,meteohub,2013-03-18 11:55:00,
2013-03-18 05:01:00,40.6,36.5,30.08,NNW,345,4.0,11.0,85,0.00,,,0.00,meteohub,2013-03-18 12:01:00,
2013-03-18 05:06:00,40.8,36.7,30.08,SSW,195,4.0,11.0,85,0.00,,,0.00,meteohub,2013-03-18 12:06:00,
2013-03-18 05:11:00,40.6,36.9,30.08,SW,226,3.0,13.0,86,0.00,,,0.00,meteohub,2013-03-18 12:11:00,
2013-03-18 05:17:00,40.6,36.9,30.09,WSW,246,4.0,15.0,86,0.00,,,0.00,meteohub,2013-03-18 12:17:00,
2013-03-18 05:22:00,40.6,37.0,30.09,WSW,258,11.0,15.0,87,0.00,,,0.00,meteohub,2013-03-18 12:22:00,
2013-03-18 05:27:00,40.6,37.0,30.09,South,188,5.0,16.0,87,0.00,,,0.00,meteohub,2013-03-18 12:27:00,
2013-03-18 05:32:00,40.6,37.0,30.09,WSW,253,4.0,16.0,87,0.00,,,0.00,meteohub,2013-03-18 12:32:00,
2013-03-18 05:37:00,40.6,37.4,30.09,WSW,242,4.0,17.0,88,0.00,,,0.00,meteohub,2013-03-18 12:37:00,
2013-03-18 05:42:00,40.6,37.0,30.09,WSW,238,9.0,17.0,87,0.00,,,0.00,meteohub,2013-03-18 12:42:00,
2013-03-18 05:47:00,40.6,37.0,30.10,SW,219,7.0,17.0,87,0.00,,,0.00,meteohub,2013-03-18 12:47:00,
2013-03-18 05:52:00,40.8,37.2,30.10,SW,232,4.0,14.0,87,0.00,,,0.00,meteohub,2013-03-18 12:52:00,
2013-03-18 05:57:00,40.8,37.6,30.10,WSW,250,4.0,14.0,88,0.00,,,0.00,meteohub,2013-03-18 12:57:00,
2013-03-18 06:02:00,40.8,37.6,30.11,SSW,203,3.0,14.0,88,0.00,,,0.00,meteohub,2013-03-18 13:02:00,
2013-03-18 06:07:00,40.8,37.6,30.11,West,270,8.0,13.0,88,0.00,,,0.00,meteohub,2013-03-18 13:07:00,
2013-03-18 06:13:00,40.8,37.6,30.11,SW,215,1.0,12.0,88,0.00,,,0.00,meteohub,2013-03-18 13:13:00,
2013-03-18 06:18:00,41.0,37.8,30.11,WSW,246,8.0,12.0,88,0.00,,,0.00,meteohub,2013-03-18 13:18:00,
2013-03-18 06:23:00,41.2,37.9,30.12,WNW,297,6.0,12.0,88,0.00,,,0.00,meteohub,2013-03-18 13:23:00,
2013-03-18 06:28:00,41.2,37.9,30.12,WSW,246,2.0,12.0,88,0.00,,,0.00,meteohub,2013-03-18 13:28:00,
2013-03-18 06:33:00,41.2,37.9,30.12,WNW,285,6.0,12.0,88,0.00,,,0.00,meteohub,2013-03-18 13:33:00,
2013-03-18 06:39:00,41.2,37.9,30.12,West,260,3.0,10.0,88,0.00,,,0.00,meteohub,2013-03-18 13:39:00,
2013-03-18 06:44:00,41.2,37.9,30.12,WSW,257,1.0,9.0,88,0.00,,,0.00,meteohub,2013-03-18 13:44:00,
2013-03-18 06:49:00,41.2,37.9,30.12,WSW,255,1.0,9.0,88,0.00,,,0.00,meteohub,2013-03-18 13:49:00,
2013-03-18 06:54:00,41.2,37.9,30.12,West,274,3.0,9.0,88,0.00,,,0.00,meteohub,2013-03-18 13:54:00,
2013-03-18 06:59:00,41.2,37.9,30.12,SSW,213,2.0,9.0,88,0.00,,,0.00,meteohub,2013-03-18 13:59:00,
2013-03-18 07:04:00,41.2,37.9,30.12,SW,229,3.0,9.0,88,0.00,,,0.00,meteohub,2013-03-18 14:04:00,
2013-03-18 07:10:00,41.2,37.9,30.12,West,278,3.0,8.0,88,0.00,,,0.00,meteohub,2013-03-18 14:10:00,
2013-03-18 07:15:00,41.2,37.9,30.12,South,177,3.0,8.0,88,0.00,,,0.00,meteohub,2013-03-18 14:15:00,
2013-03-18 07:20:00,41.4,38.3,30.12,WNW,285,4.0,8.0,89,0.00,,,0.00,meteohub,2013-03-18 14:20:00,
2013-03-18 07:25:00,41.4,38.3,30.12,SW,223,1.0,8.0,89,0.00,,,0.00,meteohub,2013-03-18 14:25:00,
2013-03-18 07:30:00,41.4,38.3,30.12,SW,235,4.0,7.0,89,0.00,,,0.00,meteohub,2013-03-18 14:30:00,
2013-03-18 07:35:00,41.4,38.3,30.12,West,271,2.0,7.0,89,0.00,,,0.00,meteohub,2013-03-18 14:35:00,
2013-03-18 07:40:00,41.4,38.3,30.12,WSW,249,1.0,11.0,89,0.00,,,0.00,meteohub,2013-03-18 14:40:00,
2013-03-18 07:46:00,41.4,38.3,30.12,West,262,3.0,11.0,89,0.00,,,0.00,meteohub,2013-03-18 14:46:00,
2013-03-18 07:51:00,41.4,38.3,30.12,WSW,248,1.0,9.0,89,0.00,,,0.00,meteohub,2013-03-18 14:51:00,
2013-03-18 07:56:00,41.5,38.5,30.13,WSW,248,1.0,8.0,89,0.00,,,0.00,meteohub,2013-03-18 14:56:00,
2013-03-18 08:01:00,41.5,38.5,30.13,West,270,2.0,8.0,89,0.00,,,0.00,meteohub,2013-03-18 15:01:00,
2013-03-18 08:07:00,41.5,38.5,30.13,West,259,1.0,8.0,89,0.00,,,0.00,meteohub,2013-03-18 15:07:00,
2013-03-18 08:12:00,41.7,38.5,30.13,WNW,298,1.0,6.0,88,0.00,,,0.00,meteohub,2013-03-18 15:12:00,
2013-03-18 08:17:00,41.7,38.7,30.13,WNW,285,1.0,6.0,89,0.00,,,0.00,meteohub,2013-03-18 15:17:00,
2013-03-18 08:22:00,41.7,38.5,30.14,WNW,283,0.0,3.0,88,0.00,,,0.00,meteohub,2013-03-18 15:22:00,
2013-03-18 08:27:00,41.7,38.7,30.14,WNW,283,0.0,2.0,89,0.00,,,0.00,meteohub,2013-03-18 15:27:00,
2013-03-18 08:32:00,41.9,38.7,30.14,WNW,282,0.0,2.0,88,0.00,,,0.00,meteohub,2013-03-18 15:32:00,
2013-03-18 08:37:00,41.9,38.8,30.14,WNW,282,1.0,0.0,89,0.00,,,0.00,meteohub,2013-03-18 15:37:00,
2013-03-18 08:42:00,42.1,38.8,30.14,West,271,0.0,1.0,88,0.00,,,0.00,meteohub,2013-03-18 15:42:00,
2013-03-18 08:47:00,42.3,39.0,30.14,West,260,2.0,2.0,88,0.00,,,0.00,meteohub,2013-03-18 15:47:00,
2013-03-18 08:52:00,42.3,39.0,30.14,West,278,1.0,2.0,88,0.00,,,0.00,meteohub,2013-03-18 15:52:00,
2013-03-18 08:57:00,42.6,39.0,30.14,WNW,303,0.0,2.0,87,0.00,,,0.00,meteohub,2013-03-18 15:57:00,
2013-03-18 09:02:00,43.0,39.0,30.15,WSW,257,2.0,2.0,86,0.00,,,0.00,meteohub,2013-03-18 16:02:00,
2013-03-18 09:07:00,43.2,39.0,30.15,West,280,0.0,2.0,85,0.00,,,0.00,meteohub,2013-03-18 16:07:00,
2013-03-18 09:13:00,43.5,39.0,30.15,North,9,0.0,2.0,84,0.00,,,0.00,meteohub,2013-03-18 16:13:00,
2013-03-18 09:18:00,43.5,39.0,30.15,North,11,1.0,2.0,84,0.00,,,0.00,meteohub,2013-03-18 16:18:00,
2013-03-18 09:23:00,43.5,39.0,30.15,East,95,1.0,2.0,84,0.00,,,0.00,meteohub,2013-03-18 16:23:00,
2013-03-18 09:28:00,43.5,39.4,30.15,NNE,31,1.0,4.0,85,0.00,,,0.00,meteohub,2013-03-18 16:28:00,
2013-03-18 09:34:00,43.9,39.7,30.14,ESE,113,3.0,4.0,85,0.00,,,0.00,meteohub,2013-03-18 16:34:00,
2013-03-18 09:39:00,44.1,39.6,30.15,ESE,105,1.0,4.0,84,0.00,,,0.00,meteohub,2013-03-18 16:39:00,
2013-03-18 09:44:00,44.1,40.1,30.15,East,79,4.0,5.0,86,0.00,,,0.00,meteohub,2013-03-18 16:44:00,
2013-03-18 09:49:00,44.2,40.1,30.15,East,93,5.0,6.0,85,0.00,,,0.00,meteohub,2013-03-18 16:49:00,
2013-03-18 09:55:00,44.8,40.5,30.15,ESE,110,3.0,8.0,85,0.00,,,0.00,meteohub,2013-03-18 16:55:00,
2013-03-18 10:00:00,44.8,39.9,30.15,SE,124,3.0,8.0,83,0.00,,,0.00,meteohub,2013-03-18 17:00:00,
2013-03-18 10:05:00,45.0,40.1,30.15,SSE,165,2.0,5.0,83,0.00,,,0.00,meteohub,2013-03-18 17:05:00,
2013-03-18 10:11:00,46.0,40.5,30.15,SW,217,0.0,5.0,81,0.00,,,0.00,meteohub,2013-03-18 17:11:00,
2013-03-18 10:16:00,47.8,41.4,30.16,ESE,122,3.0,4.0,78,0.00,,,0.00,meteohub,2013-03-18 17:16:00,
2013-03-18 10:21:00,46.2,39.4,30.16,East,100,3.0,4.0,77,0.00,,,0.00,meteohub,2013-03-18 17:21:00,
2013-03-18 10:27:00,45.7,39.9,30.17,ENE,72,3.0,5.0,80,0.00,,,0.00,meteohub,2013-03-18 17:27:00,
2013-03-18 10:32:00,45.1,39.7,30.17,ENE,68,5.0,6.0,81,0.00,,,0.00,meteohub,2013-03-18 17:32:00,
2013-03-18 10:37:00,44.8,39.6,30.17,ENE,72,3.0,8.0,82,0.00,,,0.00,meteohub,2013-03-18 17:37:00,
2013-03-18 10:42:00,45.7,40.1,30.17,ENE,60,5.0,8.0,81,0.00,,,0.00,meteohub,2013-03-18 17:42:00,
2013-03-18 10:47:00,45.9,40.3,30.17,ENE,70,5.0,8.0,81,0.00,,,0.00,meteohub,2013-03-18 17:47:00,
2013-03-18 10:52:00,46.2,41.4,30.17,East,94,2.0,8.0,83,0.00,,,0.00,meteohub,2013-03-18 17:52:00,
2013-03-18 10:57:00,45.9,41.0,30.17,NE,49,5.0,8.0,83,0.00,,,0.00,meteohub,2013-03-18 17:57:00,
2013-03-18 11:02:00,46.8,41.5,30.17,East,85,8.0,8.0,82,0.00,,,0.00,meteohub,2013-03-18 18:02:00,
2013-03-18 11:07:00,45.7,41.2,30.17,East,90,5.0,10.0,84,0.00,,,0.00,meteohub,2013-03-18 18:07:00,
2013-03-18 11:12:00,44.4,40.5,30.17,East,84,9.0,11.0,86,0.00,,,0.00,meteohub,2013-03-18 18:12:00,
2013-03-18 11:17:00,44.4,40.5,30.17,ESE,108,8.0,11.0,86,0.00,,,0.00,meteohub,2013-03-18 18:17:00,
2013-03-18 11:22:00,44.8,40.8,30.17,East,84,4.0,11.0,86,0.00,,,0.00,meteohub,2013-03-18 18:22:00,
2013-03-18 11:28:00,45.1,40.6,30.18,ESE,102,7.0,11.0,84,0.00,,,0.00,meteohub,2013-03-18 18:28:00,
2013-03-18 11:33:00,45.7,40.8,30.18,East,94,4.0,10.0,83,0.00,,,0.00,meteohub,2013-03-18 18:33:00,
2013-03-18 11:38:00,46.0,41.2,30.18,East,90,7.0,10.0,83,0.00,,,0.00,meteohub,2013-03-18 18:38:00,
2013-03-18 11:43:00,46.0,41.2,30.18,East,82,6.0,10.0,83,0.00,,,0.00,meteohub,2013-03-18 18:43:00,
2013-03-18 11:48:00,46.2,40.6,30.18,East,80,6.0,9.0,81,0.00,,,0.00,meteohub,2013-03-18 18:48:00,
2013-03-18 11:54:00,46.9,41.7,30.18,ENE,68,5.0,9.0,82,0.00,,,0.00,meteohub,2013-03-18 18:54:00,
2013-03-18 11:59:00,47.3,41.4,30.18,East,88,6.0,9.0,80,0.00,,,0.00,meteohub,2013-03-18 18:59:00,
2013-03-18 12:04:00,46.4,40.8,30.18,ENE,75,8.0,9.0,81,0.00,,,0.00,meteohub,2013-03-18 19:04:00,
2013-03-18 12:09:00,45.9,40.6,30.18,East,83,9.0,12.0,82,0.00,,,0.00,meteohub,2013-03-18 19:09:00,
2013-03-18 12:14:00,46.0,41.5,30.18,East,80,8.0,13.0,84,0.00,,,0.00,meteohub,2013-03-18 19:14:00,
2013-03-18 12:20:00,46.2,40.6,30.19,East,84,8.0,13.0,81,0.00,,,0.00,meteohub,2013-03-18 19:20:00,
2013-03-18 12:25:00,47.1,41.5,30.19,East,86,7.0,12.0,81,0.00,,,0.00,meteohub,2013-03-18 19:25:00,
2013-03-18 12:30:00,47.7,41.7,30.19,East,79,8.0,11.0,80,0.00,,,0.00,meteohub,2013-03-18 19:30:00,
2013-03-18 12:36:00,47.1,41.4,30.19,ENE,71,8.0,10.0,80,0.00,,,0.00,meteohub,2013-03-18 19:36:00,
2013-03-18 12:41:00,47.1,41.0,30.19,East,93,5.0,10.0,79,0.00,,,0.00,meteohub,2013-03-18 19:41:00,
2013-03-18 12:46:00,46.8,40.3,30.19,ENE,75,7.0,10.0,78,0.00,,,0.00,meteohub,2013-03-18 19:46:00,
2013-03-18 12:51:00,46.6,40.5,30.19,East,82,4.0,10.0,79,0.00,,,0.00,meteohub,2013-03-18 19:51:00,
2013-03-18 12:57:00,46.9,40.1,30.19,East,82,5.0,8.0,77,0.00,,,0.00,meteohub,2013-03-18 19:57:00,
2013-03-18 13:02:00,47.1,40.6,30.19,East,82,7.0,8.0,78,0.00,,,0.00,meteohub,2013-03-18 20:02:00,
2013-03-18 13:07:00,48.6,41.4,30.19,East,86,4.0,8.0,76,0.00,,,0.00,meteohub,2013-03-18 20:07:00,
2013-03-18 13:12:00,48.9,40.6,30.19,ENE,70,4.0,7.0,73,0.00,,,0.00,meteohub,2013-03-18 20:12:00,
2013-03-18 13:17:00,48.4,40.5,30.19,ENE,64,5.0,7.0,74,0.00,,,0.00,meteohub,2013-03-18 20:17:00,
2013-03-18 13:22:00,47.7,40.8,30.19,ESE,104,5.0,8.0,77,0.00,,,0.00,meteohub,2013-03-18 20:22:00,
2013-03-18 13:27:00,47.5,40.3,30.19,ESE,120,7.0,8.0,76,0.00,,,0.00,meteohub,2013-03-18 20:27:00,
2013-03-18 13:32:00,47.1,40.6,30.19,East,88,3.0,8.0,78,0.00,,,0.00,meteohub,2013-03-18 20:32:00,
2013-03-18 13:37:00,47.1,39.6,30.19,East,80,6.0,7.0,75,0.00,,,0.00,meteohub,2013-03-18 20:37:00,
2013-03-18 13:42:00,47.8,41.4,30.19,ENE,68,4.0,8.0,78,0.00,,,0.00,meteohub,2013-03-18 20:42:00,
2013-03-18 13:48:00,47.8,39.9,30.19,East,81,5.0,8.0,74,0.00,,,0.00,meteohub,2013-03-18 20:48:00,
2013-03-18 13:53:00,48.0,40.1,30.19,East,84,3.0,8.0,74,0.00,,,0.00,meteohub,2013-03-18 20:53:00,
2013-03-18 13:58:00,48.4,40.1,30.19,East,89,5.0,7.0,73,0.00,,,0.00,meteohub,2013-03-18 20:58:00,
2013-03-18 14:03:00,49.3,41.7,30.19,NE,40,4.0,10.0,75,0.00,,,0.00,meteohub,2013-03-18 21:03:00,
2013-03-18 14:08:00,49.5,39.7,30.19,East,88,8.0,10.0,69,0.00,,,0.00,meteohub,2013-03-18 21:08:00,
2013-03-18 14:14:00,49.5,40.1,30.19,ESE,121,8.0,10.0,70,0.00,,,0.00,meteohub,2013-03-18 21:14:00,
2013-03-18 14:19:00,48.7,40.5,30.19,ESE,102,7.0,11.0,73,0.00,,,0.00,meteohub,2013-03-18 21:19:00,
2013-03-18 14:24:00,48.0,40.5,30.19,East,80,9.0,11.0,75,0.00,,,0.00,meteohub,2013-03-18 21:24:00,
2013-03-18 14:29:00,48.4,40.5,30.19,ENE,58,5.0,11.0,74,0.00,,,0.00,meteohub,2013-03-18 21:29:00,
2013-03-18 14:35:00,48.6,41.0,30.19,ENE,58,5.0,11.0,75,0.00,,,0.00,meteohub,2013-03-18 21:35:00,
2013-03-18 14:40:00,48.4,40.5,30.19,ENE,77,8.0,11.0,74,0.00,,,0.00,meteohub,2013-03-18 21:40:00,
2013-03-18 14:45:00,48.4,40.8,30.19,East,90,6.0,11.0,75,0.00,,,0.00,meteohub,2013-03-18 21:45:00,
2013-03-18 14:50:00,49.6,42.1,30.19,ENE,64,5.0,11.0,75,0.00,,,0.00,meteohub,2013-03-18 21:50:00,
2013-03-18 14:55:00,49.8,41.5,30.19,NNE,32,8.0,10.0,73,0.00,,,0.00,meteohub,2013-03-18 21:55:00,
2013-03-18 15:00:00,49.5,41.5,30.19,NNE,25,7.0,9.0,74,0.00,,,0.00,meteohub,2013-03-18 22:00:00,
2013-03-18 15:06:00,48.7,40.5,30.19,NE,42,9.0,9.0,73,0.00,,,0.00,meteohub,2013-03-18 22:06:00,
2013-03-18 15:11:00,48.2,41.4,30.19,NE,40,5.0,12.0,77,0.00,,,0.00,meteohub,2013-03-18 22:11:00,
2013-03-18 15:16:00,48.4,39.0,30.19,NE,54,6.0,12.0,70,0.00,,,0.00,meteohub,2013-03-18 22:16:00,
2013-03-18 15:22:00,48.0,37.9,30.19,NNE,13,5.0,12.0,68,0.00,,,0.00,meteohub,2013-03-18 22:22:00,
2013-03-18 15:27:00,47.8,37.4,30.19,NNE,15,6.0,12.0,67,0.00,,,0.00,meteohub,2013-03-18 22:27:00,
2013-03-18 15:32:00,48.0,37.9,30.19,NNE,26,1.0,11.0,68,0.00,,,0.00,meteohub,2013-03-18 22:32:00,
2013-03-18 15:37:00,48.6,37.8,30.19,NNE,25,2.0,11.0,66,0.00,,,0.00,meteohub,2013-03-18 22:37:00,
2013-03-18 15:43:00,48.7,38.3,30.19,NNE,13,5.0,10.0,67,0.00,,,0.00,meteohub,2013-03-18 22:43:00,
2013-03-18 15:48:00,49.3,36.9,30.19,NNE,29,4.0,8.0,62,0.00,,,0.00,meteohub,2013-03-18 22:48:00,
2013-03-18 15:53:00,49.5,37.0,30.19,NE,49,9.0,10.0,62,0.00,,,0.00,meteohub,2013-03-18 22:53:00,
2013-03-18 15:58:00,49.6,37.2,30.19,North,8,7.0,13.0,62,0.00,,,0.00,meteohub,2013-03-18 22:58:00,
2013-03-18 16:03:00,49.5,37.0,30.19,NE,56,11.0,13.0,62,0.00,,,0.00,meteohub,2013-03-18 23:03:00,
2013-03-18 16:08:00,49.6,36.7,30.19,NNE,20,6.0,13.0,61,0.00,,,0.00,meteohub,2013-03-18 23:08:00,
2013-03-18 16:14:00,49.6,37.2,30.19,NNE,25,10.0,13.0,62,0.00,,,0.00,meteohub,2013-03-18 23:14:00,
2013-03-18 16:19:00,49.8,36.5,30.20,NE,56,4.0,12.0,60,0.00,,,0.00,meteohub,2013-03-18 23:19:00,
2013-03-18 16:24:00,50.4,37.0,30.20,NE,43,8.0,12.0,60,0.00,,,0.00,meteohub,2013-03-18 23:24:00,
2013-03-18 16:29:00,50.2,37.2,30.20,NE,53,9.0,12.0,61,0.00,,,0.00,meteohub,2013-03-18 23:29:00,
2013-03-18 16:34:00,49.6,36.7,30.20,North,11,3.0,11.0,61,0.00,,,0.00,meteohub,2013-03-18 23:34:00,
2013-03-18 16:39:00,49.6,36.7,30.20,NNE,29,6.0,11.0,61,0.00,,,0.00,meteohub,2013-03-18 23:39:00,
2013-03-18 16:44:00,49.6,36.3,30.20,NNE,18,2.0,11.0,60,0.00,,,0.00,meteohub,2013-03-18 23:44:00,
2013-03-18 16:50:00,50.0,36.7,30.20,NE,35,5.0,11.0,60,0.00,,,0.00,meteohub,2013-03-18 23:50:00,
2013-03-18 16:55:00,50.2,36.9,30.20,NW,316,2.0,9.0,60,0.00,,,0.00,meteohub,2013-03-18 23:55:00,
2013-03-18 17:00:00,50.2,37.2,30.20,NNW,334,4.0,10.0,61,0.00,,,0.00,meteohub,2013-03-19 00:00:00,
2013-03-18 17:05:00,50.5,37.2,30.20,NE,50,8.0,10.0,60,0.00,,,0.00,meteohub,2013-03-19 00:05:00,
2013-03-18 17:11:00,50.2,36.9,30.20,NE,42,11.0,11.0,60,0.00,,,0.00,meteohub,2013-03-19 00:11:00,
2013-03-18 17:16:00,50.0,36.7,30.20,NE,50,7.0,11.0,60,0.00,,,0.00,meteohub,2013-03-19 00:16:00,
2013-03-18 17:21:00,49.6,37.2,30.20,NNE,17,3.0,11.0,62,0.00,,,0.00,meteohub,2013-03-19 00:21:00,
2013-03-18 17:27:00,49.8,38.1,30.21,NE,53,4.0,11.0,64,0.00,,,0.00,meteohub,2013-03-19 00:27:00,
2013-03-18 17:32:00,49.8,36.9,30.20,NE,40,4.0,9.0,61,0.00,,,0.00,meteohub,2013-03-19 00:32:00,
2013-03-18 17:37:00,49.6,37.2,30.20,NE,51,5.0,9.0,62,0.00,,,0.00,meteohub,2013-03-19 00:37:00,
2013-03-18 17:42:00,49.3,37.2,30.20,NNE,29,2.0,9.0,63,0.00,,,0.00,meteohub,2013-03-19 00:42:00,
2013-03-18 17:47:00,48.9,36.9,30.20,ENE,68,1.0,9.0,63,0.00,,,0.00,meteohub,2013-03-19 00:47:00,
2013-03-18 17:53:00,48.7,36.7,30.21,NE,34,3.0,7.0,63,0.00,,,0.00,meteohub,2013-03-19 00:53:00,
2013-03-18 17:58:00,48.9,36.9,30.20,NE,39,9.0,9.0,63,0.00,,,0.00,meteohub,2013-03-19 00:58:00,
2013-03-18 18:03:00,48.7,36.7,30.21,NNE,32,3.0,12.0,63,0.00,,,0.00,meteohub,2013-03-19 01:03:00,
2013-03-18 18:08:00,48.6,36.5,30.20,NNW,347,1.0,12.0,63,0.00,,,0.00,meteohub,2013-03-19 01:08:00,
2013-03-18 18:14:00,48.6,36.9,30.21,NNE,33,1.0,12.0,64,0.00,,,0.00,meteohub,2013-03-19 01:14:00,
2013-03-18 18:19:00,48.6,36.5,30.20,NE,46,3.0,9.0,63,0.00,,,0.00,meteohub,2013-03-19 01:19:00,
2013-03-18 18:24:00,48.4,36.3,30.21,WNW,297,2.0,8.0,63,0.00,,,0.00,meteohub,2013-03-19 01:24:00,
2013-03-18 18:29:00,48.0,36.0,30.21,NE,44,2.0,8.0,63,0.00,,,0.00,meteohub,2013-03-19 01:29:00,
2013-03-18 18:34:00,47.7,36.5,30.21,WNW,295,1.0,8.0,65,0.00,,,0.00,meteohub,2013-03-19 01:34:00,
2013-03-18 18:40:00,47.1,36.0,30.21,NNE,30,2.0,7.0,65,0.00,,,0.00,meteohub,2013-03-19 01:40:00,
2013-03-18 18:45:00,46.8,36.0,30.21,NE,42,3.0,7.0,66,0.00,,,0.00,meteohub,2013-03-19 01:45:00,
2013-03-18 18:50:00,46.6,36.1,30.21,East,79,2.0,7.0,67,0.00,,,0.00,meteohub,2013-03-19 01:50:00,
2013-03-18 18:55:00,46.2,36.3,30.22,NNW,342,0.0,5.0,68,0.00,,,0.00,meteohub,2013-03-19 01:55:00,
2013-03-18 19:00:00,45.9,36.3,30.22,NW,316,0.0,5.0,69,0.00,,,0.00,meteohub,2013-03-19 02:00:00,
2013-03-18 19:06:00,45.7,36.1,30.22,NNE,33,3.0,5.0,69,0.00,,,0.00,meteohub,2013-03-19 02:06:00,
2013-03-18 19:12:00,45.3,36.1,30.22,North,6,0.0,5.0,70,0.00,,,0.00,meteohub,2013-03-19 02:12:00,
2013-03-18 19:17:00,45.1,36.3,30.22,NE,41,1.0,5.0,71,0.00,,,0.00,meteohub,2013-03-19 02:17:00,
2013-03-18 19:22:00,45.0,36.5,30.22,NNE,27,1.0,5.0,72,0.00,,,0.00,meteohub,2013-03-19 02:22:00,
2013-03-18 19:27:00,44.6,35.8,30.22,NNW,340,2.0,5.0,71,0.00,,,0.00,meteohub,2013-03-19 02:27:00,
2013-03-18 19:32:00,44.6,35.8,30.22,NNE,29,4.0,7.0,71,0.00,,,0.00,meteohub,2013-03-19 02:32:00,
2013-03-18 19:37:00,44.2,35.8,30.22,North,1,1.0,7.0,72,0.00,,,0.00,meteohub,2013-03-19 02:37:00,
2013-03-18 19:42:00,44.1,35.6,30.22,North,356,1.0,7.0,72,0.00,,,0.00,meteohub,2013-03-19 02:42:00,
2013-03-18 19:47:00,43.9,35.4,30.22,NW,321,0.0,5.0,72,0.00,,,0.00,meteohub,2013-03-19 02:47:00,
2013-03-18 19:52:00,43.7,35.6,30.22,North,354,0.0,5.0,73,0.00,,,0.00,meteohub,2013-03-19 02:52:00,
2013-03-18 19:57:00,43.5,35.4,30.22,NE,36,0.0,5.0,73,0.00,,,0.00,meteohub,2013-03-19 02:57:00,
2013-03-18 20:02:00,43.5,35.4,30.22,North,356,0.0,5.0,73,0.00,,,0.00,meteohub,2013-03-19 03:02:00,
2013-03-18 20:08:00,43.5,35.8,30.23,North,9,0.0,5.0,74,0.00,,,0.00,meteohub,2013-03-19 03:08:00,
2013-03-18 20:13:00,43.3,36.0,30.23,NNE,28,0.0,5.0,75,0.00,,,0.00,meteohub,2013-03-19 03:13:00,
2013-03-18 20:18:00,43.0,35.6,30.23,WNW,303,0.0,5.0,75,0.00,,,0.00,meteohub,2013-03-19 03:18:00,
2013-03-18 20:24:00,43.0,36.0,30.23,NE,34,2.0,4.0,76,0.00,,,0.00,meteohub,2013-03-19 03:24:00,
2013-03-18 20:29:00,42.6,35.6,30.23,NNE,18,0.0,4.0,76,0.00,,,0.00,meteohub,2013-03-19 03:29:00,
2013-03-18 20:34:00,42.4,35.8,30.23,NNE,21,0.0,3.0,77,0.00,,,0.00,meteohub,2013-03-19 03:34:00,
2013-03-18 20:39:00,42.3,35.6,30.23,NNE,19,2.0,5.0,77,0.00,,,0.00,meteohub,2013-03-19 03:39:00,
2013-03-18 20:44:00,42.3,35.6,30.23,NE,54,0.0,5.0,77,0.00,,,0.00,meteohub,2013-03-19 03:44:00,
2013-03-18 20:49:00,42.1,35.8,30.23,NE,44,3.0,4.0,78,0.00,,,0.00,meteohub,2013-03-19 03:49:00,
2013-03-18 20:54:00,41.9,35.6,30.23,North,6,0.0,3.0,78,0.00,,,0.00,meteohub,2013-03-19 03:54:00,
2013-03-18 20:59:00,41.7,35.8,30.23,North,5,2.0,5.0,79,0.00,,,0.00,meteohub,2013-03-19 03:59:00,
2013-03-18 21:00:00,41.7,35.8,30.23,North,7,1.0,7.0,79,0.00,,,0.00,meteohub,2013-03-19 04:00:00,
2013-03-18 21:01:00,41.7,35.8,30.23,North,8,5.0,7.0,79,0.00,,,0.00,meteohub,2013-03-19 04:01:00,
2013-03-18 21:03:00,41.9,35.8,30.23,North,356,0.0,7.0,79,0.00,,,0.00,meteohub,2013-03-19 04:03:00,
2013-03-18 21:08:00,41.7,35.8,30.23,NNE,23,0.0,7.0,79,0.00,,,0.00,meteohub,2013-03-19 04:08:00,
2013-03-18 21:13:00,41.4,35.6,30.24,North,0,0.0,7.0,80,0.00,,,0.00,meteohub,2013-03-19 04:13:00,
2013-03-18 21:18:00,41.2,35.8,30.24,NNE,16,0.0,7.0,81,0.00,,,0.00,meteohub,2013-03-19 04:18:00,
2013-03-18 21:23:00,41.2,35.8,30.24,NNE,13,4.0,4.0,81,0.00,,,0.00,meteohub,2013-03-19 04:23:00,
2013-03-18 21:29:00,41.2,35.8,30.24,WNW,302,0.0,4.0,81,0.00,,,0.00,meteohub,2013-03-19 04:29:00,
2013-03-18 21:34:00,41.2,36.1,30.24,WNW,297,2.0,4.0,82,0.00,,,0.00,meteohub,2013-03-19 04:34:00,
2013-03-18 21:39:00,41.2,36.1,30.24,WNW,299,1.0,4.0,82,0.00,,,0.00,meteohub,2013-03-19 04:39:00,
2013-03-18 21:44:00,41.2,36.1,30.24,NNE,32,2.0,3.0,82,0.00,,,0.00,meteohub,2013-03-19 04:44:00,
2013-03-18 21:49:00,41.2,36.1,30.24,North,358,0.0,3.0,82,0.00,,,0.00,meteohub,2013-03-19 04:49:00,
2013-03-18 21:55:00,41.0,36.0,30.24,NW,305,0.0,6.0,82,0.00,,,0.00,meteohub,2013-03-19 04:55:00,
2013-03-18 22:00:00,40.8,36.1,30.24,NNE,18,1.0,6.0,83,0.00,,,0.00,meteohub,2013-03-19 05:00:00,
2013-03-18 22:05:00,40.6,36.0,30.24,NNW,338,0.0,3.0,83,0.00,,,0.00,meteohub,2013-03-19 05:05:00,
2013-03-18 22:10:00,40.5,35.8,30.24,NW,323,0.0,3.0,83,0.00,,,0.00,meteohub,2013-03-19 05:10:00,
2013-03-18 22:16:00,40.3,35.8,30.24,NNE,22,0.0,3.0,84,0.00,,,0.00,meteohub,2013-03-19 05:16:00,
2013-03-18 22:21:00,39.9,35.4,30.24,NW,321,0.0,2.0,84,0.00,,,0.00,meteohub,2013-03-19 05:21:00,
2013-03-18 22:26:00,39.9,35.4,30.24,NW,323,0.0,2.0,84,0.00,,,0.00,meteohub,2013-03-19 05:26:00,
2013-03-18 22:31:00,39.6,35.4,30.24,NW,321,0.0,1.0,85,0.00,,,0.00,meteohub,2013-03-19 05:31:00,
2013-03-18 22:37:00,39.6,35.4,30.24,North,9,0.0,1.0,85,0.00,,,0.00,meteohub,2013-03-19 05:37:00,
2013-03-18 22:42:00,39.4,35.6,30.23,North,9,0.0,1.0,86,0.00,,,0.00,meteohub,2013-03-19 05:42:00,
2013-03-18 22:47:00,39.2,35.4,30.23,West,281,0.0,1.0,86,0.00,,,0.00,meteohub,2013-03-19 05:47:00,
2013-03-18 22:52:00,38.8,35.2,30.24,North,359,0.0,1.0,87,0.00,,,0.00,meteohub,2013-03-19 05:52:00,
2013-03-18 22:57:00,38.8,35.2,30.24,North,353,0.0,1.0,87,0.00,,,0.00,meteohub,2013-03-19 05:57:00,
2013-03-18 23:02:00,38.8,35.2,30.24,NNW,347,0.0,1.0,87,0.00,,,0.00,meteohub,2013-03-19 06:02:00,
2013-03-18 23:07:00,38.7,35.4,30.24,NNW,347,0.0,1.0,88,0.00,,,0.00,meteohub,2013-03-19 06:07:00,
2013-03-18 23:12:00,38.5,35.2,30.24,NNW,347,0.0,1.0,88,0.00,,,0.00,meteohub,2013-03-19 06:12:00,
2013-03-18 23:17:00,38.5,35.2,30.24,NNW,346,0.0,1.0,88,0.00,,,0.00,meteohub,2013-03-19 06:17:00,
2013-03-18 23:22:00,38.7,35.4,30.24,ENE,58,0.0,1.0,88,0.00,,,0.00,meteohub,2013-03-19 06:22:00,
2013-03-18 23:27:00,38.8,35.2,30.24,NNW,341,0.0,1.0,87,0.00,,,0.00,meteohub,2013-03-19 06:27:00,
2013-03-18 23:32:00,38.8,35.2,30.24,NE,38,0.0,1.0,87,0.00,,,0.00,meteohub,2013-03-19 06:32:00,
2013-03-18 23:37:00,39.0,35.2,30.23,NNE,15,0.0,2.0,86,0.00,,,0.00,meteohub,2013-03-19 06:37:00,
2013-03-18 23:42:00,39.4,35.6,30.23,NE,54,0.0,2.0,86,0.00,,,0.00,meteohub,2013-03-19 06:42:00,
2013-03-18 23:47:00,39.6,35.8,30.23,North,5,0.0,2.0,86,0.00,,,0.00,meteohub,2013-03-19 06:47:00,
2013-03-18 23:53:00,39.6,35.4,30.23,NNE,30,1.0,2.0,85,0.00,,,0.00,meteohub,2013-03-19 06:53:00,
2013-03-18 23:58:00,39.6,35.4,30.23,NNE,20,0.0,2.0,85,0.00,,,0.00,meteohub,2013-03-19 06:58:00,